Location: Corte Bragagnani
(45.3000°N, 11.1000°E)
Time: 05:26:10
(UTC+00:00)

SPOT 3 Rocket - Pass Details

Date: 09 April 2020
Orbit: 779 x 795 km, 98.8° (Epoch: 02 June)

Event Time Altitude Azimuth Distance (km) Brightness Sun altitude
Exits shadow 19:22:44 10° 167° (SSE) 2,325 5.6 -15.4°
Maximum altitude 19:27:53 83° 255° (WSW) 803 3.6 -16.1°
Drops below altitude 10° 19:33:07 10° 344° (NNW) 2,362 6.7 -16.9°
Sets 19:35:27 0° 346° (NNW) 3,293 7.5 -17.3°
